Showing default

HULIANWANG DIGUI-08, 62330

Orbit data source: Space-Track

HULIANWANG DIGUI-08, 62330 is a payload satellite owned by Zhongguo Xingwang (CN) in LEO that was launched on Mon, 16 Dec 2024 UTC via a CHANG ZHENG 5B/YZ-2 launch vehicle from the Wenchang Satellite Launch Center (WSC). Payload-class satellites include a variety of spacecraft equipped with specific instruments for various scientific and technological missions. These include communications satellites like Starlink; space stations such as the ISS; scientific satellites like the Hubble; Earth observation satellites from companies like Planet Labs, Umbra, and HawkEye 360; GPS; miniature CubeSats for education and research; and military/defense satellites.

Loading next visibility...
Identifier
62330, 2024-240H
Orbit
LEO
Country
Flag of CNCN / PRC
Related business
Manufacturer
CAST?
Mission
Operational Civil Communications
Bus & Motor
GUOWANG C, Unknown motor
Mass
~800 kg wet, ~800 kg dry
Launch date (UTC)
2024-12-16 (1 year ago)
Launch vehicle
CHANG ZHENG 5B/YZ-2
Launch site
Wenchang Satellite Launch Center (WSC)
Object type
Payload
Rocket body
Debris
Shape & HBR
Box + 2 Pan, 5.0 m
Radar Cross Section
5.935 m², Large (>1 m²)

Expand to show TLE details & history
Last TLE update: 13 hours ago

TLE from 13 hours ago
0 HULIANWANG DIGUI-08
1 62330U 24240H   25341.30263439  .00000097  00000-0  19254-3 0  9991
2 62330  86.5027  48.0660 0001623  90.3427 269.7893 13.24413126 47243
Epoch: 2025-12-07T07:15Z
TLE epoch observation values (Epoch: 2025-12-07T07:15:47.611Z)
Latitude
-0.00001°
Longitude
-137.20035°
Altitude
1,170.809 km
Speed
7.268 km/s
True Right ascension
03h 12m 15s
True Declination
0° 00' 00"
Sunlit
Object was in full shadow at epoch
Visualization orbit readout
Latitude
Unknown
Longitude
Unknown
Altitude
Unknown
Speed
Unknown
Apparent Right ascension
Unknown
Apparent Declination
Unknown
Sunlit
N/A
Visualization observer readout
Local Sidereal Time
18:32:42
Azimuth
Unknown
Elevation
Unknown
Doppler factor
Unknown
Orbital elements
Apogee altitude
1,166.254 km
Perigee altitude
1,163.806 km
Semi-major axis
7,543.167 km
Eccentricity
0.00016
Inclination
86.5027°
RAAN
48.066°
Arg. of periapsis
90.3427°
True anomaly
269.7707°
Mean anomaly
269.7893°
Eccentric anomaly
269.78°
Mean motion
3.31293 °/min
Orbital period
108.67 mins
BSTAR
0.00019254
Loading maneuver chart data...
Computing Atmospheric mass density...
Loading historical data...
Loading historical data...
Loading historical data...
Loading historical data...
Loading historical data...
Loading historical data...
Loading historical data...

Documentation

Showing up to 5 results
|